Norfolk International Airport Airport (ORF)

 

Airport Diagram
Current Weather/Forecast (VFR Conditions)
METAR KORF 201151Z AUTO 21013KT 10SM FEW013 26/23 A2969 RMK AO2 SLP053 T02610233 10261 20239 58001
TAF KORF 201137Z 2012/2112 21011KT P6SM SCT015 TEMPO 2012/2014 BKN015 FM201400 23013G20KT P6SM SCT050 FM202100 23012G19KT P6SM VCTS BKN060CB FM202300 24012G19KT 4SM SHRA BKN040 FM210300 24012G19KT P6SM SCT050 BKN100

All Charts
General
Chart Name Download
AIRPORT DIAGRAM
TAKEOFF MINIMUMS
ALTERNATE MINIMUMS

Departures
Chart Name Download
KISRR THREE

Arrivals
Chart Name Download
DRONE TWO
DRONE TWO, CONT.1
TERKS TWO

Approaches
Chart Name Download
ILS OR LOC RWY 05
ILS OR LOC RWY 23
RNAV (RNP) Y RWY 05
RNAV (RNP) Y RWY 23
RNAV (GPS) RWY 14
RNAV (GPS) RWY 32
RNAV (GPS) Z RWY 05
RNAV (GPS) Z RWY 23
VOR/DME RWY 32
VOR RWY 14
RIVER VISUAL RWY 05


Inbound Traffic (Arrivals)

No inbound traffic.


Outbound Traffic (Departures)

No outbound traffic.